Time,TemperatureF,DewpointF,PressureIn,WindDirection,WindDirectionDegrees,WindSpeedMPH,WindSpeedGustMPH,Humidity,HourlyPrecipIn,Conditions,Clouds,dailyrainin,SoftwareType,DateUTC
2013-02-24 00:01:00,35.0,28.0,29.98,East,86,1.0,3.0,76,0.00,,,0.00,,2013-02-24 06:01:00,
2013-02-24 00:11:00,35.0,28.0,29.98,East,86,1.0,3.0,76,0.00,,,0.00,,2013-02-24 06:11:00,
2013-02-24 00:21:00,35.0,28.0,29.98,SE,132,0.0,0.0,76,0.00,,,0.00,,2013-02-24 06:21:00,
2013-02-24 00:31:00,34.0,28.0,29.98,SE,132,0.0,0.0,77,0.00,,,0.00,,2013-02-24 06:31:00,
2013-02-24 00:42:00,34.0,28.0,29.98,SE,132,0.0,0.0,77,0.00,,,0.00,,2013-02-24 06:42:00,
2013-02-24 00:52:00,34.0,28.0,29.98,SE,131,0.0,1.0,79,0.00,,,0.00,,2013-02-24 06:52:00,
2013-02-24 01:01:00,34.0,28.0,29.98,ESE,105,0.0,2.0,78,0.00,,,0.00,,2013-02-24 07:01:00,
2013-02-24 01:12:00,34.0,28.0,29.98,ESE,105,0.0,2.0,78,0.00,,,0.00,,2013-02-24 07:12:00,
2013-02-24 01:21:00,34.0,28.0,29.98,ESE,114,0.0,1.0,80,0.00,,,0.00,,2013-02-24 07:21:00,
2013-02-24 01:31:00,34.0,28.0,29.97,ESE,113,0.0,1.0,80,0.00,,,0.00,,2013-02-24 07:31:00,
2013-02-24 01:42:00,34.0,28.0,29.97,ESE,113,0.0,1.0,80,0.00,,,0.00,,2013-02-24 07:42:00,
2013-02-24 01:51:00,34.0,28.0,29.97,SE,143,0.0,2.0,80,0.00,,,0.00,,2013-02-24 07:51:00,
2013-02-24 02:01:00,34.0,28.0,29.96,SE,128,0.0,2.0,79,0.00,,,0.00,,2013-02-24 08:01:00,
2013-02-24 02:11:00,34.0,28.0,29.96,SE,128,0.0,2.0,79,0.00,,,0.00,,2013-02-24 08:11:00,
2013-02-24 02:22:00,35.0,29.0,29.95,SE,128,2.0,5.0,79,0.00,,,0.00,,2013-02-24 08:22:00,
2013-02-24 02:31:00,35.0,29.0,29.96,ESE,104,0.0,2.0,78,0.00,,,0.00,,2013-02-24 08:31:00,
2013-02-24 02:42:00,35.0,29.0,29.96,ESE,104,0.0,2.0,78,0.00,,,0.00,,2013-02-24 08:42:00,
2013-02-24 02:53:00,35.0,29.0,29.96,SE,136,0.0,3.0,78,0.00,,,0.00,,2013-02-24 08:53:00,
2013-02-24 03:01:00,35.0,29.0,29.94,SE,139,0.0,1.0,79,0.00,,,0.00,,2013-02-24 09:01:00,
2013-02-24 03:11:00,35.0,29.0,29.94,SE,139,0.0,1.0,79,0.00,,,0.00,,2013-02-24 09:11:00,
2013-02-24 03:21:00,35.0,29.0,29.93,SSW,211,0.0,4.0,79,0.00,,,0.00,,2013-02-24 09:21:00,
2013-02-24 03:31:00,34.0,28.0,29.94,South,186,0.0,1.0,79,0.00,,,0.00,,2013-02-24 09:31:00,
2013-02-24 03:42:00,34.0,28.0,29.94,South,186,0.0,1.0,79,0.00,,,0.00,,2013-02-24 09:42:00,
2013-02-24 03:51:00,34.0,29.0,29.93,SE,145,0.0,1.0,81,0.00,,,0.00,,2013-02-24 09:51:00,
2013-02-24 04:01:00,34.0,29.0,29.93,ESE,119,0.0,3.0,82,0.00,,,0.00,,2013-02-24 10:01:00,
2013-02-24 04:11:00,34.0,29.0,29.93,ESE,119,0.0,3.0,82,0.00,,,0.00,,2013-02-24 10:11:00,
2013-02-24 04:21:00,35.0,30.0,29.94,SE,139,0.0,3.0,82,0.00,,,0.00,,2013-02-24 10:21:00,
2013-02-24 04:32:00,35.0,30.0,29.94,SSW,201,0.0,1.0,82,0.00,,,0.00,,2013-02-24 10:32:00,
2013-02-24 04:41:00,35.0,30.0,29.94,SSW,201,0.0,1.0,82,0.00,,,0.00,,2013-02-24 10:41:00,
2013-02-24 04:51:00,34.0,29.0,29.94,South,182,0.0,0.0,83,0.00,,,0.00,,2013-02-24 10:51:00,
2013-02-24 05:01:00,33.0,29.0,29.95,South,181,0.0,0.0,85,0.00,,,0.00,,2013-02-24 11:01:00,
2013-02-24 05:11:00,33.0,29.0,29.95,South,181,0.0,0.0,85,0.00,,,0.00,,2013-02-24 11:11:00,
2013-02-24 05:21:00,31.0,27.0,29.96,South,181,0.0,0.0,85,0.00,,,0.00,,2013-02-24 11:21:00,
2013-02-24 05:32:00,31.0,28.0,29.96,South,181,0.0,0.0,87,0.00,,,0.00,,2013-02-24 11:32:00,
2013-02-24 05:41:00,31.0,28.0,29.96,South,181,0.0,0.0,87,0.00,,,0.00,,2013-02-24 11:41:00,
2013-02-24 05:52:00,31.0,28.0,29.96,South,181,0.0,0.0,88,0.00,,,0.00,,2013-02-24 11:52:00,
2013-02-24 06:01:00,32.0,29.0,29.96,South,179,0.0,0.0,88,0.00,,,0.00,,2013-02-24 12:01:00,
2013-02-24 06:11:00,32.0,29.0,29.96,South,179,0.0,0.0,88,0.00,,,0.00,,2013-02-24 12:11:00,
2013-02-24 06:21:00,31.0,28.0,29.96,South,179,0.0,0.0,88,0.00,,,0.00,,2013-02-24 12:21:00,
2013-02-24 06:32:00,31.0,28.0,29.95,SE,126,0.0,1.0,89,0.00,,,0.00,,2013-02-24 12:32:00,
2013-02-24 06:46:00,31.0,28.0,29.95,SE,126,0.0,1.0,89,0.00,,,0.00,,2013-02-24 12:46:00,
2013-02-24 06:55:00,32.0,29.0,29.95,South,186,0.0,2.0,88,0.00,,,0.00,,2013-02-24 12:55:00,
2013-02-24 07:16:00,33.0,29.0,29.95,ESE,118,0.0,3.0,86,0.00,,,0.00,,2013-02-24 13:16:00,
2013-02-24 07:26:00,33.0,29.0,29.96,SSE,155,0.0,2.0,85,0.00,,,0.00,,2013-02-24 13:26:00,
2013-02-24 07:33:00,32.0,28.0,29.95,SSE,155,0.0,1.0,86,0.00,,,0.00,,2013-02-24 13:33:00,
2013-02-24 07:44:00,32.0,28.0,29.95,SSE,155,0.0,1.0,86,0.00,,,0.00,,2013-02-24 13:44:00,
2013-02-24 07:52:00,33.0,29.0,29.95,ESE,113,1.0,3.0,86,0.00,,,0.00,,2013-02-24 13:52:00,
2013-02-24 08:04:00,35.0,30.0,29.96,East,101,1.0,4.0,83,0.00,,,0.00,,2013-02-24 14:04:00,
2013-02-24 08:13:00,35.0,30.0,29.96,East,101,1.0,4.0,83,0.00,,,0.00,,2013-02-24 14:13:00,
2013-02-24 08:24:00,37.0,31.0,29.96,East,89,1.0,5.0,80,0.00,,,0.00,,2013-02-24 14:24:00,
2013-02-24 08:34:00,38.0,32.0,29.97,SE,124,1.0,5.0,78,0.00,,,0.00,,2013-02-24 14:34:00,
2013-02-24 08:44:00,38.0,32.0,29.97,SE,124,1.0,5.0,78,0.00,,,0.00,,2013-02-24 14:44:00,
2013-02-24 08:53:00,40.0,33.0,29.97,SSE,161,0.0,5.0,77,0.00,,,0.00,,2013-02-24 14:53:00,
2013-02-24 09:02:00,42.0,35.0,29.97,SSW,197,3.0,7.0,75,0.00,,,0.00,,2013-02-24 15:02:00,
2013-02-24 09:13:00,42.0,35.0,29.97,SSW,197,3.0,7.0,75,0.00,,,0.00,,2013-02-24 15:13:00,
2013-02-24 09:23:00,44.0,36.0,29.97,SSE,148,3.0,6.0,73,0.00,,,0.00,,2013-02-24 15:23:00,
2013-02-24 09:32:00,46.0,37.0,29.98,SE,143,4.0,8.0,71,0.00,,,0.00,,2013-02-24 15:32:00,
2013-02-24 09:42:00,46.0,37.0,29.98,SE,143,4.0,8.0,71,0.00,,,0.00,,2013-02-24 15:42:00,
2013-02-24 09:52:00,47.0,38.0,29.97,SW,229,4.0,11.0,70,0.00,,,0.00,,2013-02-24 15:52:00,
2013-02-24 10:01:00,49.0,39.0,29.97,SE,137,4.0,10.0,68,0.00,,,0.00,,2013-02-24 16:01:00,
2013-02-24 10:11:00,49.0,39.0,29.97,SE,137,4.0,10.0,68,0.00,,,0.00,,2013-02-24 16:11:00,
2013-02-24 10:21:00,51.0,40.0,29.96,ESE,121,3.0,10.0,66,0.00,,,0.00,,2013-02-24 16:21:00,
2013-02-24 10:32:00,53.0,41.0,29.96,South,174,3.0,9.0,64,0.00,,,0.00,,2013-02-24 16:32:00,
2013-02-24 10:42:00,53.0,41.0,29.96,South,174,3.0,9.0,64,0.00,,,0.00,,2013-02-24 16:42:00,
2013-02-24 10:52:00,54.0,42.0,29.96,East,82,3.0,9.0,63,0.00,,,0.00,,2013-02-24 16:52:00,
2013-02-24 11:01:00,55.0,42.0,29.94,SW,231,6.0,12.0,62,0.00,,,0.00,,2013-02-24 17:01:00,
2013-02-24 11:11:00,55.0,42.0,29.94,SW,231,6.0,12.0,62,0.00,,,0.00,,2013-02-24 17:11:00,
2013-02-24 11:21:00,56.0,43.0,29.93,SSE,148,7.0,16.0,61,0.00,,,0.00,,2013-02-24 17:21:00,
2013-02-24 11:32:00,58.0,43.0,29.93,SSW,193,5.0,14.0,58,0.00,,,0.00,,2013-02-24 17:32:00,
2013-02-24 11:41:00,58.0,43.0,29.93,SSW,193,5.0,14.0,58,0.00,,,0.00,,2013-02-24 17:41:00,
2013-02-24 11:52:00,59.0,43.0,29.93,ESE,108,5.0,11.0,56,0.00,,,0.00,,2013-02-24 17:52:00,
2013-02-24 12:01:00,60.0,43.0,29.92,East,93,3.0,12.0,54,0.00,,,0.00,,2013-02-24 18:01:00,
2013-02-24 12:11:00,60.0,43.0,29.92,East,93,3.0,12.0,54,0.00,,,0.00,,2013-02-24 18:11:00,
2013-02-24 12:22:00,60.0,42.0,29.90,NE,51,6.0,17.0,52,0.00,,,0.00,,2013-02-24 18:22:00,
2013-02-24 12:32:00,61.0,42.0,29.89,SE,127,6.0,15.0,50,0.00,,,0.00,,2013-02-24 18:32:00,
2013-02-24 12:42:00,61.0,42.0,29.89,SE,127,6.0,15.0,50,0.00,,,0.00,,2013-02-24 18:42:00,
2013-02-24 12:51:00,62.0,42.0,29.88,South,187,6.0,16.0,48,0.00,,,0.00,,2013-02-24 18:51:00,
2013-02-24 13:01:00,62.0,41.0,29.86,SE,131,5.0,14.0,46,0.00,,,0.00,,2013-02-24 19:01:00,
2013-02-24 13:11:00,62.0,41.0,29.86,SE,131,5.0,14.0,46,0.00,,,0.00,,2013-02-24 19:11:00,
2013-02-24 13:22:00,63.0,41.0,29.85,ESE,123,5.0,14.0,45,0.00,,,0.00,,2013-02-24 19:22:00,
2013-02-24 13:32:00,64.0,42.0,29.84,SW,221,5.0,13.0,45,0.00,,,0.00,,2013-02-24 19:32:00,
2013-02-24 13:41:00,64.0,42.0,29.84,SW,221,5.0,13.0,45,0.00,,,0.00,,2013-02-24 19:41:00,
2013-02-24 13:51:00,64.0,42.0,29.83,SSE,158,4.0,12.0,45,0.00,,,0.00,,2013-02-24 19:51:00,
2013-02-24 14:02:00,65.0,42.0,29.82,SSE,154,5.0,12.0,43,0.00,,,0.00,,2013-02-24 20:02:00,
2013-02-24 14:11:00,65.0,42.0,29.82,SSE,154,5.0,12.0,43,0.00,,,0.00,,2013-02-24 20:11:00,
2013-02-24 14:21:00,65.0,41.0,29.80,SSW,205,4.0,15.0,42,0.00,,,0.00,,2013-02-24 20:21:00,
2013-02-24 14:32:00,66.0,42.0,29.79,ESE,110,5.0,11.0,41,0.00,,,0.00,,2013-02-24 20:32:00,
2013-02-24 14:42:00,66.0,42.0,29.79,ESE,110,5.0,11.0,41,0.00,,,0.00,,2013-02-24 20:42:00,
2013-02-24 14:52:00,66.0,41.0,29.79,South,187,5.0,12.0,40,0.00,,,0.00,,2013-02-24 20:52:00,
2013-02-24 15:01:00,66.0,41.0,29.78,ESE,113,5.0,11.0,40,0.00,,,0.00,,2013-02-24 21:01:00,
2013-02-24 15:11:00,66.0,41.0,29.78,ESE,113,5.0,11.0,40,0.00,,,0.00,,2013-02-24 21:11:00,
2013-02-24 15:21:00,66.0,40.0,29.78,SE,129,4.0,12.0,39,0.00,,,0.00,,2013-02-24 21:21:00,
2013-02-24 15:32:00,66.0,40.0,29.77,WNW,285,5.0,14.0,39,0.00,,,0.00,,2013-02-24 21:32:00,
2013-02-24 15:42:00,66.0,40.0,29.77,WNW,285,5.0,14.0,39,0.00,,,0.00,,2013-02-24 21:42:00,
2013-02-24 15:52:00,66.0,41.0,29.76,South,174,4.0,12.0,40,0.00,,,0.00,,2013-02-24 21:52:00,
2013-02-24 16:01:00,66.0,41.0,29.75,SSE,153,4.0,12.0,40,0.00,,,0.00,,2013-02-24 22:01:00,
2013-02-24 16:11:00,66.0,41.0,29.75,SSE,153,4.0,12.0,40,0.00,,,0.00,,2013-02-24 22:11:00,
2013-02-24 16:21:00,66.0,41.0,29.75,SSW,204,5.0,13.0,40,0.00,,,0.00,,2013-02-24 22:21:00,
2013-02-24 16:31:00,66.0,42.0,29.74,SW,221,5.0,13.0,41,0.00,,,0.00,,2013-02-24 22:31:00,
2013-02-24 16:41:00,66.0,42.0,29.74,SW,221,5.0,13.0,41,0.00,,,0.00,,2013-02-24 22:41:00,
2013-02-24 16:51:00,66.0,41.0,29.74,SE,125,4.0,13.0,40,0.00,,,0.00,,2013-02-24 22:51:00,
2013-02-24 17:02:00,66.0,42.0,29.74,ESE,113,5.0,15.0,41,0.00,,,0.00,,2013-02-24 23:02:00,
2013-02-24 17:11:00,66.0,42.0,29.74,ESE,113,5.0,15.0,41,0.00,,,0.00,,2013-02-24 23:11:00,
2013-02-24 17:21:00,65.0,41.0,29.74,SSE,160,3.0,11.0,42,0.00,,,0.00,,2013-02-24 23:21:00,
2013-02-24 17:31:00,65.0,41.0,29.74,SE,146,4.0,12.0,42,0.00,,,0.00,,2013-02-24 23:31:00,
2013-02-24 17:41:00,65.0,41.0,29.74,SE,146,4.0,12.0,42,0.00,,,0.00,,2013-02-24 23:41:00,
2013-02-24 17:52:00,64.0,41.0,29.75,SSE,149,4.0,9.0,43,0.00,,,0.00,,2013-02-24 23:52:00,
2013-02-24 18:01:00,63.0,41.0,29.75,East,97,4.0,10.0,44,0.00,,,0.00,,2013-02-25 00:01:00,
2013-02-24 18:11:00,63.0,41.0,29.75,East,97,4.0,10.0,44,0.00,,,0.00,,2013-02-25 00:11:00,
2013-02-24 18:21:00,62.0,40.0,29.73,South,169,3.0,12.0,45,0.00,,,0.00,,2013-02-25 00:21:00,
2013-02-24 18:32:00,61.0,41.0,29.74,SW,225,2.0,9.0,48,0.00,,,0.00,,2013-02-25 00:32:00,
2013-02-24 18:42:00,61.0,41.0,29.74,SW,225,2.0,9.0,48,0.00,,,0.00,,2013-02-25 00:42:00,
2013-02-24 18:51:00,60.0,41.0,29.75,ENE,58,2.0,8.0,50,0.00,,,0.00,,2013-02-25 00:51:00,
2013-02-24 19:01:00,59.0,41.0,29.75,SE,135,2.0,8.0,51,0.00,,,0.00,,2013-02-25 01:01:00,
2013-02-24 19:11:00,59.0,41.0,29.75,SE,135,2.0,8.0,51,0.00,,,0.00,,2013-02-25 01:11:00,
2013-02-24 19:21:00,59.0,41.0,29.76,East,95,4.0,8.0,52,0.00,,,0.00,,2013-02-25 01:21:00,
2013-02-24 19:31:00,58.0,40.0,29.75,ESE,103,3.0,9.0,52,0.00,,,0.00,,2013-02-25 01:31:00,
2013-02-24 19:42:00,58.0,40.0,29.75,ESE,103,3.0,9.0,52,0.00,,,0.00,,2013-02-25 01:42:00,
2013-02-24 19:51:00,58.0,40.0,29.75,East,98,3.0,9.0,52,0.00,,,0.00,,2013-02-25 01:51:00,
2013-02-24 20:01:00,57.0,41.0,29.75,SSE,150,2.0,8.0,54,0.00,,,0.00,,2013-02-25 02:01:00,
2013-02-24 20:11:00,57.0,41.0,29.75,SSE,150,2.0,8.0,54,0.00,,,0.00,,2013-02-25 02:11:00,
2013-02-24 20:21:00,57.0,41.0,29.75,SSE,150,2.0,8.0,54,0.00,,,0.00,,2013-02-25 02:21:00,
2013-02-24 20:32:00,57.0,41.0,29.75,SSE,150,2.0,8.0,54,0.00,,,0.00,,2013-02-25 02:32:00,
2013-02-24 20:41:00,57.0,41.0,29.75,SSE,150,2.0,8.0,54,0.00,,,0.00,,2013-02-25 02:41:00,
2013-02-24 20:52:00,55.0,40.0,29.75,SE,131,3.0,7.0,56,0.00,,,0.00,,2013-02-25 02:52:00,
2013-02-24 21:01:00,55.0,39.0,29.75,East,79,3.0,8.0,55,0.00,,,0.00,,2013-02-25 03:01:00,
2013-02-24 21:11:00,55.0,39.0,29.75,East,79,3.0,8.0,55,0.00,,,0.00,,2013-02-25 03:11:00,
2013-02-24 21:21:00,55.0,39.0,29.75,East,96,4.0,8.0,55,0.00,,,0.00,,2013-02-25 03:21:00,
2013-02-24 21:31:00,55.0,39.0,29.74,SE,142,4.0,9.0,55,0.00,,,0.00,,2013-02-25 03:31:00,
2013-02-24 21:41:00,55.0,39.0,29.74,SE,142,4.0,9.0,55,0.00,,,0.00,,2013-02-25 03:41:00,
2013-02-24 21:51:00,54.0,39.0,29.74,NE,49,5.0,12.0,56,0.00,,,0.00,,2013-02-25 03:51:00,
2013-02-24 22:01:00,54.0,39.0,29.74,ENE,72,5.0,10.0,57,0.00,,,0.00,,2013-02-25 04:01:00,
2013-02-24 22:11:00,54.0,39.0,29.74,ENE,72,5.0,10.0,57,0.00,,,0.00,,2013-02-25 04:11:00,
2013-02-24 22:21:00,54.0,40.0,29.73,East,79,7.0,12.0,58,0.00,,,0.00,,2013-02-25 04:21:00,
2013-02-24 22:31:00,54.0,40.0,29.71,SSE,153,5.0,17.0,58,0.00,,,0.00,,2013-02-25 04:31:00,
2013-02-24 22:41:00,54.0,40.0,29.71,SSE,153,5.0,17.0,58,0.00,,,0.00,,2013-02-25 04:41:00,
2013-02-24 22:52:00,53.0,39.0,29.71,ENE,68,6.0,12.0,58,0.00,,,0.00,,2013-02-25 04:52:00,
2013-02-24 23:01:00,53.0,39.0,29.70,ESE,110,3.0,10.0,59,0.00,,,0.00,,2013-02-25 05:01:00,
2013-02-24 23:11:00,53.0,39.0,29.70,ESE,110,3.0,10.0,59,0.00,,,0.00,,2013-02-25 05:11:00,
2013-02-24 23:22:00,52.0,39.0,29.69,ESE,105,3.0,11.0,60,0.00,,,0.00,,2013-02-25 05:22:00,
2013-02-24 23:32:00,52.0,39.0,29.69,SSE,150,3.0,10.0,61,0.00,,,0.00,,2013-02-25 05:32:00,
2013-02-24 23:42:00,52.0,39.0,29.69,SSE,150,3.0,10.0,61,0.00,,,0.00,,2013-02-25 05:42:00,
2013-02-24 23:52:00,52.0,39.0,29.68,ESE,112,5.0,11.0,60,0.00,,,0.00,,2013-02-25 05:52:00,